Regional Weather Roundup
Issued by NWS

Home | Current Version | Previous Version | Graphics & Text | Print | Product List | Glossary On
Versions: 1 2 3 4 5 6 7 8 9 10 11 12 13 14 15 16 17 18 19 20 21 22 23 24 25 26 27 28 29 30 31 32 33 34 35 36 37 38 39 40 41 42 43 44 45 46 47 48 49 50
000
ASUS43 KBIS 252302
RWRND

NORTH DAKOTA REGIONAL WEATHER ROUNDUP
NATIONAL WEATHER SERVICE BISMARCK ND
600 PM CDT SUN SEP 25 2016

NOTE: "FAIR" INDICATES FEW OR NO CLOUDS BELOW 12,000 FEET WITH NO
SIGNIFICANT WEATHER AND/OR OBSTRUCTIONS TO VISIBILITY.


NDZ001>003-009>011-017-260000-
NORTHWEST NORTH DAKOTA

CITY           SKY/WX    TMP DP  RH WIND       PRES   REMARKS
WILLISTON      SUNNY     64  31  28 NW22G33   30.18S
MINOT          SUNNY     62  33  33 W26G39    30.06S
MINOT AFB      SUNNY     62  34  35 NW28G37   30.05R
$$

NDZ018>021-031>035-040>046-260000-
SOUTHWEST NORTH DAKOTA

CITY           SKY/WX    TMP DP  RH WIND       PRES   REMARKS
BISMARCK       SUNNY     63  32  31 NW29G38   30.12S
DICKINSON      SUNNY     60  31  33 NW23G32   30.18S
GARRISON         N/A     62  31  31 NW32G40   30.09S
HETTINGER ARPT MOSUNNY   61  32  33 NW26G36   30.23S
$$

NDZ004>008-012>016-024-026-027-054-260000-
NORTHEAST NORTH DAKOTA

CITY           SKY/WX    TMP DP  RH WIND       PRES   REMARKS
GRAND FORKS    LGT RAIN  53  48  83 NW17G24   29.91R
GRND FRKS AFB  LGT RAIN  53  47  78 NW14G22   29.91R
DEVILS LAKE    CLOUDY    59  42  53 NW18G26   29.96R
$$

NDZ022-023-025-028>030-036>039-047>053-260000-
SOUTHEAST NORTH DAKOTA

CITY           SKY/WX    TMP DP  RH WIND       PRES   REMARKS
FARGO          CLOUDY    60  42  51 NW25G32   29.94R
JAMESTOWN      MOSUNNY   60  36  40 NW25G35   30.00R
$$




USA.gov is the U.S. government's official web portal to all federal, state and local government web resources and services.